Vertical_Velocity
-1 1 1 -2 -2 -3 -5 -4 -2 -3 -3 -2 -2 -1 -2 -4 -1 -0 -1 -1 6 -6
2 1 -1 -0 -2 -4 -2 -2 -3 -3 -4 -3 -3 -2 -3 -3 -2 -1 1 -4 -1 3
-1 -2 -2 -2 -2 -4 -1 -3 -3 -2 -2 -2 -2 -2 -2 -2 -1 -1 3 -2 -4 0
-2 -2 -1 -3 -5 -1 -1 -5 -4 -4 -3 -4 -4 -1 -2 0 -2 -3 -0 5 5 -3
-3 -1 -2 -3 -2 -2 -5 -0 -6 -5 -3 -3 -2 -1 -1 -3 -0 -0 -2 0 3 -3
-1 1 -1 -2 0 -3 -4 -3 -2 -2 -4 -5 -3 -4 1 1 -3 -0 -2 -4 -2 -5
0 -2 -3 -2 -1 -4 -3 -5 -1 1 -3 -3 -4 -1 -1 -2 -6 2 3 -1 3 -2
-1 -2 -2 -1 -2 -3 -3 -2 -1 -4 -0 -1 -2 -2 -5 -1 -0 4 -2 -1 0 -2
-1 -2 -2 -1 -2 -3 -2 -4 -3 -1 -2 -6 -2 -1 -0 2 3 2 -0 -3 -4 -5
-1 -2 -1 -1 -2 -3 -3 -4 -3 -2 -1 -4 -1 -2 -1 -2 1 1 -1 -1 -2 -4
-1 -1 -0 -1 -2 -3 -1 -3 -4 -3 -1 -5 -1 -2 -2 -3 -2 -3 -0 0 -1 3
-1 -1 -1 -1 -2 -0 -4 -1 -2 -2 -4 -4 -5 -1 -2 -1 -3 -3 -5 -2 -2 -2
0 -1 -2 -2 -1 -3 -1 -3 -3 -4 0 0 -7 2 -2 2 -1 -2 -6 -3 -5 -2
1 -2 -1 -2 1 -1 -2 -3 -1 -4 -2 -2 2 -5 -2 2 -0 -1 -4 1 -12 -6
Height
1533 1529 1526 1522 1518 1515 1511 1507 1504 1501 1499 1496 1492 1488 1484 1480 1477 1473 1470 1469 1466 1463
1530 1527 1524 1521 1517 1513 1509 1504 1501 1498 1494 1491 1487 1483 1478 1474 1470 1466 1463 1460 1458 1454
1526 1524 1521 1518 1514 1511 1507 1502 1498 1494 1490 1486 1482 1477 1472 1467 1464 1459 1455 1452 1449 1446
1523 1521 1518 1514 1511 1507 1503 1498 1494 1490 1485 1481 1476 1472 1467 1462 1457 1452 1448 1446 1443 1438
1519 1517 1514 1511 1508 1502 1499 1495 1490 1486 1481 1477 1472 1467 1462 1456 1453 1448 1442 1437 1434 1431
1516 1513 1510 1507 1504 1499 1495 1491 1487 1482 1476 1472 1468 1463 1458 1452 1447 1442 1436 1431 1425 1419
1512 1509 1506 1503 1499 1495 1492 1487 1482 1477 1472 1467 1462 1457 1452 1446 1441 1438 1433 1427 1421 1413
1506 1504 1501 1498 1495 1491 1488 1483 1477 1472 1467 1462 1456 1451 1445 1441 1437 1432 1424 1418 1413 1406
1501 1499 1497 1493 1489 1486 1482 1477 1473 1467 1461 1455 1451 1445 1440 1436 1431 1424 1417 1409 1404 1398
1495 1493 1491 1487 1483 1479 1475 1470 1466 1461 1455 1449 1444 1438 1432 1428 1423 1416 1409 1402 1396 1390
1488 1486 1483 1480 1476 1472 1468 1463 1458 1453 1448 1441 1437 1431 1425 1420 1415 1408 1401 1395 1389 1383
1481 1478 1475 1472 1469 1465 1460 1455 1450 1446 1440 1434 1428 1424 1418 1413 1406 1399 1392 1386 1381 1374
1474 1470 1467 1464 1460 1456 1452 1446 1441 1437 1433 1428 1421 1417 1411 1406 1400 1393 1385 1377 1371 1366
1466 1463 1459 1455 1452 1448 1443 1438 1433 1428 1424 1420 1415 1408 1403 1399 1394 1387 1379 1371 1361 1354